Location: Saginaw
(43.4195°N, 83.9508°W)
Time: 18:47:39
(UTC-05:00)

Daily predictions for brighter satellites

Satellite Brightness Start Highest point End
(mag) Time Altitude Azimuth Time Altitude Azimuth Time Altitude Azimuth
CSL-04 Debris 4.4 17:25:45 10° SE 17:30:53 48° ENE 17:36:04 10° N
ISS -2.5 17:30:45 10° NW 17:33:35 25° NNE 17:36:23 10° ENE
Aureole 1 Rocket 4.1 17:33:04 10° N 17:38:35 54° ENE 17:45:40 10° SE
ATLAS 2AS CENTAUR R/B 3.6 17:31:34 10° S 17:38:39 41° ESE 17:46:05 10° NE
Abrixas rocket 3.0 17:35:42 10° SW 17:38:46 40° SSE 17:41:50 10° ENE
BREEZE-M DEB (TANK) 2.8 17:37:28 10° W 17:39:30 38° NNW 17:42:50 10° ENE
NOSS 2-3 (E) 3.9 17:37:24 10° SSW 17:41:59 68° ESE 17:47:20 10° NE
Cosmos 2142 Rocket 4.5 17:40:28 10° S 17:46:37 72° E 17:52:45 10° NNE
ATLAS 3B R/B 3.1 17:41:29 10° NNW 17:47:40 37° NE 17:53:38 10° ESE
Meteor 1-28 Rocket 3.6 17:47:01 10° NNE 17:50:34 40° E 17:54:08 10° S
Cosmos 2369 Rocket 4.1 17:47:17 10° WSW 17:51:43 23° NW 17:56:08 10° N
Cosmos 1455 Rocket 3.8 17:48:23 10° NNE 17:52:20 31° ENE 17:56:13 10° SE
Cosmos 1743 3.3 17:49:26 10° N 17:52:59 34° ENE 17:56:32 10° SE
CSL-04 Rocket 3.7 17:48:19 10° SSE 17:53:42 84° ENE 17:59:13 10° NNW
Cosmos 1544 Rocket 4.1 17:52:03 10° N 17:56:05 35° ENE 18:00:05 10° SE
Cosmos 1607 4.1 17:50:06 10° NW 17:56:38 86° WSW 18:03:05 10° SSE
USA 215 3.9 17:50:25 10° SSE 17:56:51 59° SW 18:03:19 10° NW
Atlas Centaur 2 3.9 17:53:45 10° SW 17:56:54 16° S 17:59:42 10° SE
FENGYUN 3A 4.5 17:54:56 10° ESE 17:59:22 27° ENE 18:03:48 10° N
YAOGAN 1 2.9 17:56:31 10° SE 18:00:34 41° ENE 18:04:39 10° N
Okean 1 3.2 17:59:03 10° S 18:03:01 87° ESE 18:07:01 10° N
Cosmos 2279 Rocket 4.0 17:57:01 10° S 18:03:12 67° E 18:09:25 10° NNE
BREEZE-M DEB (TANK) 2.3 18:01:19 10° WNW 18:03:48 90° E 18:10:28 10° ESE
METEOR-M 4.2 18:05:09 10° SE 18:10:18 52° ENE 18:15:28 10° N
Cosmos 1818 4.1 18:06:20 10° SW 18:11:39 57° NW 18:17:02 10° NNE
COSMO-SKYMED 1 3.2 18:08:57 11° NNE 18:12:45 35° E 18:16:42 10° SSE
Cosmos 389 Rocket 2.3 18:11:01 10° N 18:14:31 73° E 18:17:57 10° SSE
Cosmos 1898 Rocket 4.0 18:09:32 10° SSW 18:14:41 62° WNW 18:19:54 10° NNE
Cosmos 1975 2.9 18:10:55 10° N 18:14:57 79° W 18:18:59 10° S
Cosmos 2227 Rocket 2.5 18:10:32 10° NNW 18:15:55 41° ENE 18:21:13 10° SE
Landsat 4 4.1 18:12:41 13° NNE 18:15:55 43° E 18:19:34 10° S
USA 116 3.2 18:13:07 11° NNE 18:16:12 59° E 18:19:16 10° S
Cosmos 2219 3.3 18:11:30 10° NNW 18:17:08 80° WSW 18:22:44 10° SSE
Ariane Rocket 3.4 18:12:25 10° S 18:17:27 69° WSW 18:22:31 10° NNW
NOSS 2-3 (C) 4.2 18:12:56 10° SW 18:17:35 65° NW 18:22:36 12° NNE
Cosmos 1271 Rocket 2.6 18:16:00 10° N 18:19:46 65° ENE 18:23:33 10° SSE
CZ-4 R/B 1.4 18:19:34 10° S 18:23:24 77° WSW 18:27:21 10° NNW
Cosmos 1484 Rocket 4.0 18:20:42 10° S 18:24:34 47° W 18:28:28 10° NNW
Cosmos 1975 Rocket 3.6 18:20:17 10° SSW 18:24:41 61° W 18:29:09 10° N
MONITOR-E 4.5 18:23:06 10° SE 18:25:58 40° ENE 18:28:52 10° N
Meteor 2-9 Rocket 4.3 18:20:56 10° N 18:26:22 51° ENE 18:31:37 10° SSE
Cosmos 1125 Rocket 4.2 18:21:44 10° SSE 18:26:24 32° E 18:28:37 23° ENE
Cosmos 2298 Rocket 4.3 18:22:43 10° SSW 18:28:01 71° WNW 18:33:20 10° NNE
Cosmos 1937 Rocket 3.9 18:25:48 10° SSW 18:30:56 62° WNW 18:36:04 10° NNE
CENTAUR R/B 4.1 18:25:07 10° NNW 18:31:04 24° NNE 18:33:46 20° NE
SJ 16-02 2.1 18:27:51 10° SSE 18:31:39 29° E 18:32:10 28° E
DELTA 2 R/B (1) 4.1 18:27:07 10° WSW 18:32:29 50° SSE 18:35:44 23° ESE
Cosmos 1048 Rocket 4.4 18:29:56 10° N 18:35:03 42° ENE 18:40:08 10° SE
ERS-2 2.0 18:36:02 10° SSE 18:39:39 67° ENE 18:43:19 10° N
Meteor 1-13 Rocket 4.1 18:35:36 10° S 18:41:08 80° E 18:46:51 10° NNE
SKYMED 3 4.4 18:39:23 15° NNE 18:42:56 74° ESE 18:47:15 10° S
Cosmos 2297 Rocket 2.2 18:37:48 10° NNW 18:43:24 57° ENE 18:48:56 10° SE
USA 238 DEB 3.7 18:38:17 10° NW 18:45:25 76° NE 18:52:36 10° SE
USA 238 3.7 18:38:23 10° NW 18:45:31 75° NE 18:52:42 10° SE
CZ-2C R/B 4.4 18:45:26 10° N 18:50:00 57° WNW 18:54:37 10° SSW
Meteor 2-4 Rocket 3.5 18:46:41 10° S 18:52:09 77° E 18:57:04 13° NNE
Cosmos 1536 Rocket 3.4 18:48:24 10° S 18:52:46 84° E 18:55:33 22° N
Cosmos 1666 3.6 18:49:43 10° NNW 18:53:21 47° W 18:56:56 10° SSW
Meteor 1-15 Rocket 4.4 18:48:30 10° N 18:54:19 52° ENE 19:00:03 10° SSE
SKYMED 2 3.8 18:57:35 17° N 19:00:55 71° WNW 19:05:13 10° SSW
Cosmos 372 Rocket 3.9 18:56:35 10° S 19:01:44 63° ESE 19:03:11 44° NE
ALOS 2.2 18:57:56 10° SSE 19:02:36 85° W 19:07:18 10° NNW
Cosmos 2266 Rocket 3.9 18:57:13 10° N 19:03:19 87° W 19:09:27 10° S
ISS -2.8 19:07:03 10° WNW 19:09:27 45° WNW 19:09:27 45° WNW
Cosmos 1656 3.6 19:05:52 10° SSW 19:11:24 66° ESE 19:12:28 54° ENE
Cosmos 2369 3.6 19:06:14 10° SSW 19:11:53 76° ESE 19:13:40 45° NE
Cosmos 2278 3.6 19:08:27 10° SSW 19:14:06 76° ESE 19:15:39 49° NE
Abrixas rocket 3.7 19:12:11 10° W 19:14:22 34° WNW 19:14:22 34° WNW
NOSS 3-2 (A) 3.9 19:09:26 10° NW 19:16:56 72° NE 19:21:35 28° SE
EO 1 Del DPAF 4.2 19:19:19 36° NNW 19:20:21 46° WNW 19:24:00 10° SW
DMSP B5D1-3 4.5 19:18:11 32° N 19:20:38 82° WNW 19:25:45 10° SSW
NOSS 3-2 (C) 4.0 19:14:27 10° NNW 19:21:51 62° NE 19:24:22 44° ESE
SPOT 3 Rocket 4.1 19:17:24 10° S 19:22:29 57° WSW 19:27:36 10° NNW
BREEZE-M DEB (TANK) 3.8 19:23:48 10° WNW 19:27:02 81° NNE 19:27:08 80° NE
ATLAS 2AS CENTAUR R/B 3.6 19:21:50 10° WSW 19:29:31 56° NW 19:34:19 25° NNE
Cosmos 1244 Rocket 4.3 19:26:24 10° N 19:32:33 73° E 19:38:41 10° SSE
FengYun 1-2 T 4.1 19:29:12 10° SSE 19:34:48 90° WSW 19:40:29 10° NNW
Thor Agena Rocket 4.5 19:38:34 37° S 19:38:34 37° S 19:41:44 10° S
ATLAS 3B R/B 3.2 19:32:09 10° NW 19:38:35 53° WSW 19:44:51 10° SSE
Cosmos 724 4.4 19:33:54 10° NW 19:39:40 70° WSW 19:41:24 46° S
Cosmos 1697 Rocket 2.9 19:36:25 10° SSW 19:41:04 61° S 19:41:04 61° S
Atlas Centaur 2 4.0 19:43:18 10° SW 19:44:41 12° SSW 19:44:41 12° SSW
Cosmos 2082 4.4 19:39:35 10° NW 19:45:01 51° WSW 19:50:25 10° S
NOSS 3-4 (A) 3.7 19:44:08 10° SSW 19:49:05 56° S 19:49:05 56° S
NOSS 3-4 (C) 3.7 19:44:14 10° SSW 19:49:08 55° S 19:49:08 55° S
Cosmos 2227 Rocket 3.9 19:54:54 10° NW 19:59:47 31° WSW 20:04:39 10° SSW
SJ 16-02 3.5 20:06:29 10° WSW 20:09:14 25° W 20:09:14 25° W
Cosmos 1980 Rocket 4.2 20:15:29 10° SSW 20:17:02 19° SSW 20:17:02 19° SSW
CENTAUR R/B 3.6 20:15:29 10° NNW 20:20:58 48° N 20:20:58 48° N
Cosmos 2297 Rocket 4.4 20:22:46 10° NW 20:26:57 22° W 20:31:09 10° SSW
